Accueil
METAR-TAF:

METAR-TAF

Aéroports :

Reims, France

Aérodrome de Reims - Prunay

latitude: 49-12-31N, longitude: 004-09-24E, altitude: 95 m

Observation

Le bulletin a été fait il y a 36 minutes, à 10:00 UTC
Vent 12 kt de est/nord-est
Température 1°C
Humidité 69%
Pression 1019 hPa
Visibilité 10 km ou plus

METAR: LFQA 221000Z AUTO 06012KT 9999 NSC 01/M04 Q1019

Heure: 11:36 (10:36 UTC)


TAF: absent

Observations et prévisions météorologiques de plus de 4000 aéroports (messages METAR et TAF).

Les stations disponibles sont représentées par des disques jaunes et rouges sur la carte.

Passer la souris dessus pour voir le nom de la station.

Cliquer dessus pour voir les observations et prévisions météorologiques.

Pour changer de carte: cliquez sur les boutons verts avec une croix noire pour zoomer, sur le bouton vert avec un tiret pour effectuer un zoom arrière, ou sur les flèches vertes pour les cartes adjacentes.


METAR-TAF: